This demonstration page uses our WeatherBlox Daily Observations layout. Learn more.

Left ArrowRight Arrow

Hourly Observations for August 30, 2021

Temp ( °F °C ) Dew Point ( °F °C ) Humidity (%) Winds ( mph kmh ) Pressure ( in mb ) Visibility ( mi km ) Precip ( " mm )
12:59 am 00:59 Partly Cloudy 76 24.4 72 22.2 88 88 WSW 3 6 30.06 1018 8 13 0.00 0.00
1:59 am 01:59 Mostly Cloudy 76 24.4 72 22.2 88 88 Calm 30.03 1017 8 13 0.00 0.00
2:59 am 02:59 Mostly Cloudy 77 25 72 22.2 85 85 S 3 6 30.02 1017 8 13 0.00 0.00
3:59 am 03:59 Mostly Cloudy 78 25.6 73 22.8 85 85 SW 5 7 30.01 1016 8 13 0.00 0.00
4:59 am 04:59 Mostly Cloudy 78 25.6 74 23.3 87 87 Calm 30.01 1016 8 13 0.00 0.00
5:59 am 05:59 Mostly Cloudy 77 25 73 22.8 88 88 Calm 30.00 1016 7 11 0.00 0.00
6:59 am 06:59 Mostly Sunny 77 25 73 22.8 88 88 Calm 30.01 1016 8 13 0.00 0.00
7:59 am 07:59 Mostly Sunny 81 27.2 75 23.9 82 82 Calm 30.01 1016 10 16 0.00 0.00
8:59 am 08:59 Mostly Cloudy 82 27.8 75 23.9 79 79 SW 5 7 30.00 1016 10 16 0.00 0.00
9:59 am 09:59 Sunny 85 29.4 74 23.3 70 70 WSW 6 9 29.99 1016 7 11 0.00 0.00
10:59 am 10:59 Partly Cloudy 86 30 73 22.8 65 65 WNW 6 9 29.98 1015 10 16 0.00 0.00
11:59 am 11:59 Partly Cloudy 88 31.1 75 23.9 66 66 VRB 5 7 29.96 1015 10 16 0.00 0.00
12:59 pm 12:59 Sunny 90 32.2 72 22.2 56 56 VRB 7 11 29.94 1014 9 14 0.00 0.00
1:59 pm 13:59 Mostly Cloudy 90 32.2 71 21.7 54 54 W 8 13 29.91 1013 9 14 0.00 0.00
2:59 pm 14:59 Partly Cloudy 91 32.8 72 22.2 54 54 NW 5 7 29.88 1012 9 14 0.00 0.00
3:59 pm 15:59 Mostly Sunny 93 33.9 73 22.8 52 52 SW 6 9 29.85 1011 8 13 0.00 0.00
4:59 pm 16:59 Partly Cloudy 92 33.3 72 22.2 52 52 WSW 6 9 29.84 1011 8 13 0.00 0.00
5:59 pm 17:59 Partly Cloudy 91 32.8 71 21.7 52 52 WSW 6 9 29.84 1011 9 14 0.00 0.00
6:59 pm 18:59 Partly Cloudy 90 32.2 72 22.2 56 56 VRB 5 7 29.84 1011 8 13 0.00 0.00
7:52 pm 19:52 Mostly Cloudy with Thunderstorms 87 30.6 72 22.2 61 61 Calm 29.85 1011 10 16 0.00 0.00
7:59 pm 19:59 Mostly Cloudy with Thunderstorms 88 31.1 71 21.7 57 57 W 5 7 29.85 1011 10 16 0.00 0.00
8:59 pm 20:59 Cloudy 82 27.8 69 20.6 65 65 E 5 7 29.85 1011 10 16 0.00 0.00
9:38 pm 21:38 Cloudy with Thunderstorms 79 26.1 70 21.1 74 74 E 7 11 29.89 1012 10 16 0.00 0.00
9:59 pm 21:59 Cloudy with Thunderstorms 77 25 69 20.6 77 77 NW 23 37 29.90 1013 10 16 0.00 0.00
10:22 pm 22:22 Cloudy with Thunderstorms 74 23.3 70 21.1 88 88 WSW 15 24 29.94 1014 6 10 0.21 5.33
10:59 pm 22:59 Cloudy with Thunderstorms 73 22.8 69 20.6 87 87 Calm 29.91 1013 6 10 0.24 6.10
11:47 pm 23:47 Mostly Cloudy with Light Rain 75 23.9 71 21.7 88 88 SSW 9 15 29.90 1013 6 10 0.05 1.27
11:59 pm 23:59 Mostly Cloudy with Light Rain 75 23.9 72 22.2 90 90 WSW 8 13 29.90 1012 6 10 0.08 2.03

Powered by AerisWeather